Weather History for Rolla, MO

Change the Weather History Date:

Wednesday, March 20, 2013

  Actual Average Record
Temperature  
Mean Temperature 28 °F 47 °F  
Max Temperature 35 °F 58 °F 80 °F (1975)
Min Temperature 20 °F 36 °F 11 °F (1965)
Degree Days  
Heating Degree Days 37 18  
Month to date heating degree days 538 433  
Since 1 July heating degree days 4124 4223  
Cooling Degree Days 0 0  
Month to date cooling degree days 0 0  
Year to date cooling degree days 0 0  
Moisture  
Dew Point 21 °F    
Average Humidity 69    
Maximum Humidity 96    
Minimum Humidity 41    
Precipitation  
Precipitation 0.00 in 0.12 in 3.13 in (1962)
Month to date precipitation 2.82 1.99  
Year to date precipitation 7.53 6.09  
Sea Level Pressure  
Sea Level Pressure 30.21 in    
Wind  
Wind Speed 12 mph (WNW)    
Max Wind Speed 26 mph    
Max Gust Speed 32 mph    
Visibility 10 miles    
Events      
T = Trace of Precipitation, MM = Missing Value Source: NWS Daily Summary

Daily Weather History Graph

Daily Weather History Graph

Search for Another Location

Airport:

Trip Planner

Search our weather history database for the weather conditions in past years. The results will help you decide how hot, cold, wet, or windy it might be!

Date:

Astronomy

Mar. 20, 2013 Rise Set
Actual Time 7:10 AM CDT 7:19 PM CDT
Civil Twilight 6:43 AM CDT 7:45 PM CDT
Nautical Twilight 6:13 AM CDT 8:16 PM CDT
Astronomical Twilight 5:41 AM CDT 8:47 PM CDT
Moon 12:59 PM CDT (3/20) 2:45 AM CDT (3/20)
Length of Visible Light 13h 01m
Length of Day
12h 09m
First Quarter, 59% of the Moon is Illuminated
Mar 20
First Quarter
Mar 27
Full
Apr 2
Last Quarter
Apr 10
New
Apr 18
First Quarter

Hourly Weather History & Observations

Time (CDT) Temp. Windchill Dew Point Humidity Pressure Visibility Wind Dir Wind Speed Gust Speed Precip Events Conditions
12:53 AM 32.0 °F 24.2 °F 28.9 °F 88% 30.22 in 10.0 mi West 9.2 mph - N/A   Scattered Clouds
1:03 AM 33.8 °F 24.8 °F 30.2 °F 87% 30.19 in 10.0 mi West 12.7 mph - N/A   Mostly Cloudy
1:36 AM 32.0 °F 22.5 °F 30.2 °F 93% 30.19 in 10.0 mi West 12.7 mph - N/A   Overcast
1:53 AM 32.0 °F 23.6 °F 30.9 °F 96% 30.21 in 10.0 mi West 10.4 mph - N/A   Overcast
2:53 AM 32.0 °F 23.6 °F 30.0 °F 92% 30.21 in 9.0 mi WNW 10.4 mph - N/A   Overcast
3:45 AM 32.0 °F 24.2 °F 30.2 °F 93% 30.17 in 7.0 mi West 9.2 mph - N/A   Overcast
3:53 AM 33.1 °F 25.5 °F 30.9 °F 92% 30.19 in 7.0 mi West 9.2 mph - N/A   Overcast
4:35 AM 33.8 °F 26.4 °F 30.2 °F 87% 30.17 in 8.0 mi West 9.2 mph - N/A   Overcast
4:46 AM 33.8 °F 27.0 °F 32.0 °F 93% 30.17 in 8.0 mi West 8.1 mph - N/A   Overcast
4:53 AM 34.0 °F 26.0 °F 32.0 °F 92% 30.20 in 8.0 mi West 10.4 mph - N/A   Overcast
5:51 AM 33.8 °F 26.4 °F 30.2 °F 87% 30.19 in 8.0 mi NW 9.2 mph - N/A   Scattered Clouds
5:53 AM 34.0 °F 26.0 °F 30.9 °F 89% 30.21 in 9.0 mi NW 10.4 mph - N/A   Scattered Clouds
6:53 AM 32.0 °F 23.0 °F 26.1 °F 79% 30.23 in 10.0 mi NW 11.5 mph - N/A   Scattered Clouds
7:53 AM 30.9 °F 22.2 °F 21.9 °F 69% 30.28 in 10.0 mi NW 10.4 mph - N/A   Overcast
8:53 AM 30.0 °F 19.1 °F 19.0 °F 64% 30.29 in 10.0 mi NW 15.0 mph 21.9 mph N/A   Overcast
9:48 AM 30.2 °F 20.2 °F 21.2 °F 69% 30.25 in 10.0 mi WNW 12.7 mph - N/A   Mostly Cloudy
9:53 AM 30.0 °F 19.5 °F 21.0 °F 69% 30.29 in 10.0 mi WNW 13.8 mph - N/A   Mostly Cloudy
10:18 AM 32.0 °F 21.6 °F 19.4 °F 60% 30.25 in 10.0 mi NW 15.0 mph 20.7 mph N/A   Scattered Clouds
10:53 AM 33.1 °F 22.6 °F 18.0 °F 54% 30.28 in 10.0 mi NW 16.1 mph 21.9 mph N/A   Clear
11:53 AM 35.1 °F 23.8 °F 17.1 °F 48% 30.27 in 10.0 mi NW 20.7 mph 25.3 mph N/A   Partly Cloudy
12:53 PM 34.0 °F 23.0 °F 15.1 °F 46% 30.26 in 10.0 mi NW 18.4 mph 32.2 mph N/A   Partly Cloudy
1:53 PM 34.0 °F 22.7 °F 15.1 °F 46% 30.24 in 10.0 mi NW 19.6 mph 27.6 mph N/A   Clear
2:53 PM 34.0 °F 23.0 °F 16.0 °F 48% 30.22 in 10.0 mi West 18.4 mph 29.9 mph N/A   Scattered Clouds
3:53 PM 34.0 °F 22.7 °F 14.0 °F 44% 30.19 in 10.0 mi WNW 19.6 mph 26.5 mph N/A   Clear
4:53 PM 33.1 °F 22.6 °F 12.9 °F 43% 30.18 in 10.0 mi WNW 16.1 mph 27.6 mph N/A   Clear
5:53 PM 32.0 °F 23.0 °F 12.0 °F 44% 30.17 in 10.0 mi NW 11.5 mph 26.5 mph N/A   Clear
6:53 PM 30.9 °F 21.2 °F 10.9 °F 43% 30.16 in 10.0 mi NW 12.7 mph 21.9 mph N/A   Clear
7:53 PM 28.0 °F 20.8 °F 10.9 °F 49% 30.16 in 10.0 mi NW 6.9 mph - N/A   Clear
8:53 PM 27.0 °F 23.0 °F 10.0 °F 49% 30.14 in 10.0 mi NW 3.5 mph - N/A   Clear
9:53 PM 26.1 °F 20.5 °F 10.0 °F 51% 30.14 in 10.0 mi NW 4.6 mph - N/A   Clear
10:53 PM 24.1 °F 18.2 °F 10.0 °F 55% 30.14 in 10.0 mi WNW 4.6 mph - N/A   Clear
11:53 PM 24.1 °F 17.0 °F 10.0 °F 55% 30.13 in 10.0 mi West 5.8 mph - N/A   Clear